x

Tanner Bank - 121nm West Of San Diego, Ca (46047) Wave Buoy

3:50am - Thu 27th Apr 2017 All times are PDT. -7 hours from GMT.

  • Sig Wave height 10.8ft
  • Swell Direction
  • Peak Period 8s
  • Average Period 6s
  • Wind
    31mph, 38mph gusts
  • Sea Temp 58°f
  • Air Temp 57°f
  • Sea Pressure 1011.5mb
  • Tanner Bank - 121nm West Of San Diego, Ca
  • Tanner Bank - 121nm West Of San Diego, Ca

More Historic Weather Station data

Upgrade to MSW Pro to gain access to the past 30 days of data for over 8000 Wavebouys and Weather Stations around the globe.

Join Pro

Comparision Forecast

View Surf forecast
   
Thu 04/27 3:50am 11ft 8s 6s 31 38 mph 1011.5mb 58f 57f
2:50am 11ft 8s 7s 27 36 mph 1011.9mb 58f 57f
1:50am 11ft 8s 7s 29 38 mph 1012.4mb 57f 57f
12:50am 11ft 8s 6s 31 38 mph 1012.6mb 57f 57f
Wed 04/26 11:50pm 11.5ft 9s 7s 31 40 mph 1012.7mb 57f 57f
10:50pm 12ft 8s 7s 31 40 mph 1012.3mb 57f 57f
9:50pm 12ft 8s 6s 31 40 mph 1012.2mb 57f 57f
8:50pm 12ft 8s 7s 29 38 mph 1012.1mb 57f 57f
7:50pm 10.5ft 8s 6s 27 36 mph 1011.7mb 57f 58f
6:50pm 11ft 8s 6s 29 38 mph 1011.7mb 57f 58f
4:50pm 10ft 8s 6s 29 36 mph 1012mb 57f 59f
3:50pm 10.5ft 8s 6s 27 34 mph 1012.8mb 57f 58f
2:50pm 10ft 8s 6s 29 34 mph 1013.2mb 57f 58f
1:50pm 11ft 9s 7s 27 31 mph 1013.4mb 57f 58f
12:50pm 12.5ft 8s 7s 25 29 mph 1013.9mb 57f 57f
11:50am 12.5ft 10s 7s 25 31 mph 1014.5mb 57f 57f
10:50am 10.5ft 9s 7s 22 27 mph 1014.6mb 57f 58f
9:50am 10ft 8s 7s 25 31 mph 1014mb 57f 57f
8:50am 11.5ft 9s 7s 22 27 mph 1013.9mb 58f 58f
7:50am 10ft 10s 7s 22 27 mph 1013.3mb 58f 58f
6:50am 11ft 9s 7s 22 27 mph 1012.8mb 58f 58f
5:50am 11ft 9s 7s 25 29 mph 1012.5mb 58f 58f
4:50am 11ft 9s 7s 27 31 mph 1012.5mb 58f 58f
3:50am 12ft 9s 7s 29 34 mph 1012.5mb 58f 57f
2:50am 12ft 9s 7s 29 36 mph 1012.6mb 58f 57f
1:50am 12.5ft 9s 7s 25 31 mph 1013.5mb 58f 58f
12:50am 13ft 9s 7s 29 36 mph 1013.7mb 57f 58f
Tue 04/25 11:50pm 14ft 9s 7s 31 36 mph 1013.8mb 57f 58f
10:50pm 13ft 8s 7s 31 38 mph 1014mb 57f 58f
9:50pm 14ft 9s 7s 25 29 mph 1014.8mb 57f 58f
8:50pm 13.5ft 8s 7s 29 38 mph 1013.3mb 57f 58f
7:50pm 13ft 8s 7s 31 36 mph 1013.1mb 57f 58f
6:50pm 12.5ft 8s 7s 31 38 mph 1012.8mb 57f 58f
5:50pm 13.5ft 8s 7s 29 34 mph 1013.3mb 57f 58f
4:50pm 12ft 8s 7s 31 40 mph 1013.3mb 57f 58f
3:50pm 13ft 8s 7s 29 38 mph 1013.9mb 57f 57f
2:50pm 11ft 9s 7s 31 40 mph 1013.9mb 57f 57f
1:50pm 12ft 8s 7s 34 40 mph 1014.4mb 57f 57f
12:50pm 12ft 9s 7s 31 38 mph 1015mb 57f 57f
11:50am 11.5ft 8s 7s 31 38 mph 1015.6mb 57f 57f
10:50am 12.5ft 8s 7s 29 38 mph 1015.4mb 57f 57f
9:50am 12ft 8s 7s 31 38 mph 1015mb 57f 57f
8:50am 12ft 9s 7s 31 38 mph 1014.4mb 57f 57f
7:50am 12ft 8s 7s 31 38 mph 1014.4mb 57f 57f
6:50am 12ft 8s 7s 29 36 mph 1013.7mb 57f 57f
5:50am 12ft 8s 7s 31 38 mph 1013.3mb 57f 57f
4:50am 11ft 9s 7s 29 34 mph 1013.4mb 57f 57f
3:50am 11.5ft 8s  -  25 31 mph 1013.8mb 57f 57f
2:50am 11.5ft 8s 7s 31 36 mph 1013.8mb 57f 57f
1:50am 12ft 8s 7s 31 36 mph 1014.2mb 57f 58f
12:50am 12.5ft 8s 7s 29 36 mph 1014.4mb 58f 58f
Mon 04/24 11:50pm 11ft 8s 7s 29 36 mph 1013.9mb 58f 58f
10:50pm 12ft 8s 7s 31 38 mph 1014.3mb 58f 58f
9:50pm 11.5ft 8s 7s 31 38 mph 1014.2mb 58f 58f
8:50pm 11.5ft 8s 7s 31 40 mph 1013.9mb 58f 58f
7:50pm 11ft 8s 7s 29 36 mph 1013.9mb 58f 58f
6:50pm 12.5ft 13s 7s 29 36 mph 1013.9mb 58f 58f
5:50pm 12ft 9s 7s 29 36 mph 1013.9mb 58f 58f
4:50pm 13ft 8s 7s 29 36 mph 1013.9mb 58f 58f
3:50pm 11.5ft 8s 7s 29 36 mph 1014.4mb 58f 58f
2:50pm 13ft 14s 7s 29 36 mph 1015.1mb 58f 57f
1:50pm 12ft 9s 7s 27 34 mph 1015.8mb 58f 57f
12:50pm 13.5ft 8s 7s 27 34 mph 1015.9mb 57f 57f
11:50am 12ft 9s 7s 27 34 mph 1015.8mb 57f 57f
10:50am 13ft 8s 7s 29 36 mph 1015.3mb 57f 57f
9:50am 13ft 9s 7s 27 34 mph 1015.2mb 57f 57f
8:50am 13.5ft 9s 7s 27 34 mph 1014.5mb 57f 57f
7:50am 14ft 8s 7s 27 34 mph 1013.8mb 57f 57f
6:50am 12.5ft 8s 7s 29 36 mph 1012.8mb 57f 57f
4:50am 13ft 9s 7s 25 31 mph 1012.6mb 58f 57f
3:50am 12ft 8s 7s 25 29 mph 1012.4mb 58f 57f
2:50am 12ft 15s 7s 27 31 mph 1012.3mb 58f 57f
1:50am 11ft 8s 7s 27 34 mph 1012.6mb 58f 57f
12:50am 12ft 9s 7s 27 31 mph 1012.9mb 58f 57f
Sun 04/23 11:50pm 12ft 8s 7s 29 34 mph 1013mb 58f 57f
10:50pm 11.5ft 8s 7s 29 36 mph 1012.9mb 58f 57f
9:50pm 11ft 8s 7s 29 36 mph 1012.8mb 58f 58f
8:50pm 11ft 8s 7s 29 36 mph 1012.1mb 58f 58f
7:50pm 12ft 8s 7s 29 34 mph 1011.9mb 58f 58f
6:50pm 11ft 8s 7s 27 34 mph 1012mb 58f 58f
5:50pm 11.5ft 8s 7s 29 36 mph 1012.2mb 58f 58f
4:50pm 11.5ft 8s 7s 29 34 mph 1012.3mb 58f 58f
3:50pm 10ft 8s 6s 29 36 mph 1012.8mb 58f 58f
2:50pm 10ft 8s 6s 29 36 mph 1013mb 58f 58f
1:50pm 10ft 8s 6s 27 31 mph 1013.5mb 58f 58f
12:50pm 10.5ft 8s 7s 22 29 mph 1013.9mb 58f 58f